Theta_e
328 329 333 338 341 340 342 342 342 342 340 337 335 332 330 329 328 329 329 328 332 333 332 330 331 327 325 322 322 321 320 320 321 321 322 325 324 320 318 320 320 320 319
325 327 329 333 338 339 337 338 342 339 338 336 335 333 331 330 327 328 329 328 331 333 333 331 330 328 328 324 323 322 322 324 323 323 319 321 320 320 319 321 321 318 319
325 325 326 328 330 334 338 339 336 339 339 337 336 335 332 330 328 331 330 328 330 330 332 331 329 328 327 324 325 324 325 325 325 320 319 319 318 319 321 322 322 321 319
318 323 324 326 327 330 332 335 334 334 338 337 335 333 332 331 328 329 330 330 332 333 333 332 330 328 329 328 327 326 325 325 325 322 320 319 320 321 319 321 321 321 320
315 319 324 325 324 325 327 330 336 333 333 335 336 336 333 330 329 329 330 331 332 333 331 330 327 327 328 328 326 326 326 327 326 325 323 321 321 321 323 322 321 321 322
315 318 323 323 321 321 323 324 327 333 332 333 334 333 331 329 329 329 330 333 334 333 333 331 330 326 327 326 323 324 326 328 327 325 325 325 324 324 322 321 321 321 321
313 316 322 322 319 318 318 319 321 324 328 331 329 331 334 334 334 333 333 332 334 334 333 331 330 329 328 326 324 321 324 326 327 328 328 327 327 326 322 324 322 322 321
312 314 319 321 319 318 317 318 320 321 324 325 328 330 331 330 333 332 332 332 332 332 334 333 330 329 329 329 328 326 324 325 324 324 328 329 329 327 323 323 322 321 320
312 313 314 319 321 318 317 318 320 321 323 324 324 325 329 331 330 331 332 332 331 331 333 334 334 331 329 330 328 328 326 326 325 323 323 326 327 323 321 320 320 320 321
312 313 313 315 318 320 317 318 319 319 319 320 322 324 326 328 330 331 332 332 331 330 331 332 333 332 333 331 329 328 328 327 326 324 322 322 322 319 313 314 319 319 320
310 312 313 313 315 320 319 318 318 318 319 320 322 323 325 330 330 331 331 332 330 331 331 331 331 331 331 330 328 327 326 327 327 325 323 322 319 318 318 314 316 317 318
309 310 312 313 314 317 319 318 317 317 317 319 320 321 323 326 327 329 330 331 331 332 332 332 332 330 330 329 328 327 328 327 327 326 325 323 321 321 321 319 317 317 316
309 309 311 313 314 317 318 318 316 316 316 316 317 319 320 322 320 320 324 328 330 327 331 332 329 328 328 325 326 325 325 323 325 325 324 324 324 324 321 318 317 316 317
309 309 310 312 314 315 317 316 315 315 315 315 316 317 316 317 318 316 315 319 321 326 328 329 329 328 327 326 323 321 320 322 323 324 323 321 323 321 317 315 315 315 315
308 308 309 311 313 314 316 315 314 312 310 312 313 312 311 313 311 311 313 313 316 319 320 320 321 323 321 322 322 322 319 319 320 322 322 322 318 315 313 314 313 313 314
309 309 310 310 313 313 315 308 307 307 305 307 308 308 306 306 307 308 309 310 311 313 315 315 315 316 317 318 317 316 316 318 317 317 317 316 312 310 310 310 310 310 311
310 310 311 311 312 313 312 312 313 307 308 307 307 307 307 307 307 308 308 310 311 312 313 312 311 311 311 312 312 312 310 310 311 310 311 309 308 308 309 308 309 309 307
310 309 308 310 311 311 311 309 310 312 312 309 308 307 308 308 309 309 309 310 313 313 312 311 310 309 309 309 308 308 307 307 307 307 308 308 308 309 307 307 306 306 306
309 309 310 311 311 311 311 310 310 310 312 311 307 306 306 307 307 308 309 310 312 312 313 312 311 311 311 310 309 308 308 308 309 309 309 310 308 307 307 306 306 305 306
308 308 306 309 309 309 311 310 310 310 312 311 309 308 307 307 306 307 307 307 307 307 307 309 309 309 310 310 310 310 309 309 309 310 309 309 308 307 307 307 306 307 306
307 307 306 307 309 307 308 310 310 311 311 308 307 304 304 306 305 306 308 308 308 308 308 310 309 308 308 308 308 308 308 308 308 308 307 307 306 305 305 305 306 305 304
306 306 306 307 307 308 308 307 307 311 310 308 304 303 303 306 306 305 305 305 305 306 306 307 307 306 306 306 306 307 307 307 306 306 305 304 302 301 301 302 302 302 302
302 305 306 307 307 308 307 308 310 309 308 307 304 303 304 302 301 301 302 303 304 304 304 304 304 304 304 304 303 303 304 305 304 302 301 299 299 299 299 300 301 301 302
303 302 304 307 307 309 309 307 305 305 305 303 302 301 299 298 298 299 300 301 302 302 302 302 303 303 303 302 301 301 301 301 301 301 300 299 298 297 299 300 301 302 302
304 303 305 308 308 306 305 304 304 303 302 300 298 297 297 297 298 299 300 300 301 301 302 302 302 302 302 302 302 300 300 300 302 301 301 300 299 297 298 299 300 301 300
303 305 304 304 303 303 301 300 300 299 298 297 297 296 296 297 298 298 300 300 301 301 301 301 301 301 300 299 299 300 300 300 301 301 301 301 300 300 300 300 300 299 299
Wind_Speed
18 18 17 12 9 7 12 16 19 18 22 19 18 21 22 19 20 23 27 23 22 20 19 18 17 15 14 12 11 10 8 7 7 6 7 9 9 8 6 5 5 6 7
15 17 18 16 12 7 7 10 12 16 14 14 15 16 22 20 19 24 27 33 28 23 23 20 21 18 16 12 12 11 9 8 6 9 9 9 8 7 6 6 5 5 5
14 14 15 16 15 14 9 7 12 14 13 15 16 19 18 16 18 19 21 29 29 23 24 24 21 21 19 16 14 13 11 10 8 10 9 8 7 6 6 6 5 5 4
16 12 13 13 14 13 11 9 10 13 13 14 16 17 16 18 17 17 22 25 25 23 25 26 24 24 23 21 17 16 14 13 11 11 10 10 9 8 7 6 3 3 5
17 15 7 7 10 12 12 11 8 8 13 13 16 19 21 21 20 18 19 20 21 25 28 34 31 29 28 22 20 21 19 18 16 15 11 11 10 9 9 3 3 4 1
15 15 9 9 7 9 10 10 10 8 7 10 15 22 31 26 24 29 30 24 26 28 29 31 28 32 30 28 27 23 24 22 19 16 15 12 9 9 8 5 3 4 2
16 15 11 8 9 6 8 9 9 11 10 10 13 17 22 27 29 31 32 34 26 27 26 28 27 28 33 30 31 29 29 29 22 16 15 13 11 12 9 8 5 4 5
17 15 15 12 10 7 7 8 9 9 11 13 13 13 19 22 28 31 30 33 35 34 31 31 32 31 32 33 26 26 30 28 30 23 16 14 12 10 11 7 6 5 7
19 16 15 15 11 9 7 6 7 8 10 12 14 16 17 21 22 26 29 34 31 34 33 32 32 31 34 31 28 28 28 27 28 28 25 18 15 16 12 8 9 7 8
21 18 16 15 15 13 9 7 6 7 10 13 16 17 18 21 21 24 28 28 29 29 30 32 33 34 30 39 44 30 23 26 26 25 28 25 21 21 19 15 11 10 10
23 21 19 18 17 15 12 8 6 7 9 12 15 17 19 19 19 21 23 26 24 22 24 24 28 34 38 37 47 41 39 32 28 23 17 15 17 18 16 18 15 13 13
23 23 21 19 18 16 12 10 6 5 8 11 13 15 15 16 13 15 18 18 20 21 21 22 20 28 30 42 48 38 32 30 21 18 16 17 18 19 20 16 15 13 12
22 22 21 19 18 18 15 11 8 6 7 10 12 13 14 14 16 15 16 21 24 27 21 19 19 21 22 23 40 35 33 20 17 16 19 21 15 20 19 17 14 11 10
22 22 21 21 19 17 15 11 7 6 6 9 11 12 13 15 11 15 15 12 12 20 23 18 21 24 25 23 26 26 21 25 22 22 25 28 24 23 17 18 15 12 10
19 20 21 21 19 16 13 7 4 2 5 7 8 8 11 12 10 12 13 11 12 9 9 16 10 21 21 22 26 28 25 24 26 25 27 26 29 19 17 17 11 11 9
17 19 19 19 18 9 10 5 3 3 4 3 4 5 5 5 7 8 7 3 5 6 5 5 6 10 13 14 14 14 17 22 21 23 21 24 21 20 19 15 14 13 8
16 15 15 15 20 18 7 3 6 6 3 3 1 2 2 2 5 8 7 7 2 4 7 10 7 6 9 12 13 13 13 14 14 14 16 17 19 20 18 16 15 16 15
13 13 16 17 18 17 22 20 16 12 9 8 5 5 3 3 3 6 5 4 1 10 10 11 10 11 10 13 12 13 15 15 17 17 17 15 16 16 15 14 12 12 11
14 12 12 11 7 13 15 16 17 13 12 6 5 4 2 1 3 6 5 6 4 6 9 10 10 11 11 12 11 12 12 12 10 10 10 9 9 9 9 11 12 13 12
10 9 11 10 7 6 11 14 12 11 11 7 6 5 2 0 3 5 6 7 6 4 11 6 7 10 10 9 9 9 8 7 6 6 7 7 7 9 11 11 11 11 11
11 8 9 10 8 1 5 10 11 14 9 8 5 3 5 4 5 4 3 4 3 6 7 4 5 8 9 8 7 7 7 6 5 4 6 5 5 8 9 9 8 7 9
18 13 8 8 7 9 6 10 14 10 9 9 8 5 6 4 6 7 8 4 5 5 7 6 5 7 7 7 6 3 2 2 2 3 5 5 6 6 7 8 8 7 8
20 16 10 8 8 8 12 13 6 9 10 11 11 9 7 9 9 8 8 6 5 6 8 9 6 6 8 7 6 3 2 2 3 6 7 6 5 6 7 7 7 8 8
10 14 13 9 9 9 9 10 12 13 12 12 14 15 15 14 13 14 11 6 7 10 8 9 10 8 9 7 6 4 3 2 3 3 3 3 3 4 6 6 6 6 6
8 9 13 13 11 12 15 16 17 18 19 20 21 22 21 18 18 15 12 9 11 12 11 10 10 9 12 10 8 6 6 7 7 5 7 6 2 2 3 3 3 4 5
25 24 23 21 19 20 22 22 22 23 23 23 23 22 19 15 14 12 10 11 13 14 14 13 13 13 11 13 13 12 11 12 13 11 7 9 6 4 3 1 1 2 4
Wind_Direction
4 359 2 346 330 295 229 216 204 188 173 177 192 188 185 203 195 190 201 237 258 245 241 231 227 220 228 217 216 216 213 218 245 185 192 206 220 230 236 266 296 298 314
2 360 358 360 354 316 286 263 214 197 215 217 213 219 221 214 206 212 214 207 231 237 237 229 226 211 214 219 214 217 204 207 232 198 200 212 219 218 237 259 270 295 304
351 356 360 356 359 356 317 263 253 240 235 233 228 223 226 212 221 220 212 204 218 223 237 233 229 218 204 209 213 215 205 206 203 193 188 204 217 218 237 254 258 285 314
333 345 354 356 352 353 349 320 272 256 259 218 226 224 229 222 205 221 219 208 218 232 237 232 220 222 209 200 204 218 212 210 206 207 194 197 211 211 230 241 248 285 315
326 316 336 348 354 350 350 344 326 277 261 253 237 229 232 225 226 241 234 230 238 230 226 228 228 219 218 206 201 214 213 214 210 215 210 210 203 206 225 206 272 311 288
317 305 314 321 339 343 340 340 338 326 288 269 249 241 235 231 234 245 253 242 238 233 230 225 222 221 219 212 215 213 216 216 227 221 227 224 211 214 232 232 261 302 294
307 301 286 294 304 335 331 329 330 328 324 299 272 263 257 249 249 242 242 239 233 231 229 230 229 231 229 219 222 221 221 224 226 229 242 239 228 215 225 226 219 247 261
294 293 289 273 287 306 316 325 327 323 313 304 294 281 265 261 256 246 244 241 241 243 240 232 232 229 223 210 203 215 220 227 231 228 236 243 249 237 218 227 236 246 261
280 281 280 280 268 277 284 302 313 317 315 307 295 290 279 269 257 255 249 241 240 243 244 238 230 226 224 225 207 210 215 217 229 226 225 231 226 235 224 227 234 238 254
277 275 277 273 270 265 269 273 291 303 307 307 302 295 287 278 269 258 246 239 239 241 243 242 243 239 231 223 210 209 203 215 213 223 225 231 235 239 231 231 255 252 253
279 277 275 273 264 252 256 259 274 298 304 303 301 301 293 286 284 268 252 243 233 227 235 233 237 241 240 234 220 214 213 214 208 207 214 216 225 230 236 231 236 245 253
282 275 272 269 263 246 240 260 271 295 308 309 305 305 306 312 296 273 265 252 252 245 235 235 238 245 236 235 228 208 194 202 196 197 207 215 212 225 230 229 229 230 243
281 277 269 268 260 245 238 241 263 285 304 312 313 313 306 307 311 303 287 267 257 235 234 236 232 253 243 247 232 207 199 196 203 193 208 225 230 243 229 218 211 213 224
277 274 268 260 254 246 233 232 242 270 294 306 311 310 306 305 316 315 302 295 285 240 230 234 242 245 231 226 209 202 200 199 212 220 234 239 234 224 207 195 199 207 218
271 266 263 255 250 245 219 230 234 260 285 302 307 303 305 306 320 316 303 287 266 253 227 225 223 215 213 209 217 213 219 223 223 223 218 209 204 205 198 197 189 189 204
279 273 265 251 245 225 189 182 244 261 316 341 336 307 288 333 7 14 19 314 235 187 179 162 197 198 184 180 186 192 210 217 219 217 204 193 185 190 179 182 188 185 199
273 284 273 258 244 237 188 235 249 198 246 303 190 132 161 277 352 344 1 14 338 120 114 106 123 143 151 162 178 187 177 201 212 200 196 187 185 181 177 188 196 200 212
285 279 283 270 259 254 237 242 274 282 214 204 227 223 250 300 341 346 338 298 10 79 83 97 102 111 117 120 132 139 148 157 162 168 172 173 181 181 186 194 199 211 223
297 280 295 300 296 266 237 214 226 251 263 201 219 232 234 309 37 38 27 52 24 101 106 106 110 113 114 115 121 130 137 143 150 157 160 170 176 180 198 211 217 215 219
303 310 295 280 266 291 235 212 211 225 216 206 205 221 224 224 81 58 59 65 63 77 95 105 118 118 120 125 126 132 142 161 173 185 189 197 196 205 214 219 219 211 207
297 271 277 256 253 319 314 202 197 215 182 164 171 177 169 157 105 85 58 67 68 65 79 103 131 106 108 110 115 126 138 150 158 191 195 180 191 212 217 218 214 213 219
289 270 244 255 247 236 240 266 254 181 165 156 140 145 146 156 107 84 78 61 68 64 91 86 67 83 84 86 80 80 117 153 210 246 248 227 220 219 215 212 208 207 212
265 253 230 238 231 209 218 241 160 141 137 136 130 121 102 91 82 70 67 60 59 68 55 63 60 65 69 64 61 46 19 357 301 257 251 242 227 216 211 208 205 203 204
275 213 209 212 194 186 152 123 119 116 111 105 105 98 95 90 78 73 61 53 67 69 63 68 66 63 72 58 60 47 18 350 319 289 244 235 220 212 198 204 210 217 222
60 166 204 148 132 118 117 112 101 96 93 92 91 91 88 83 76 69 65 65 72 72 70 69 71 66 66 62 63 58 57 68 64 70 75 78 92 186 194 183 204 235 236
63 72 81 90 92 93 90 85 85 88 88 90 89 90 88 80 73 64 63 71 79 82 78 74 74 74 75 63 63 60 64 74 70 65 64 56 54 43 39 56 230 266 270